Terminal Aerodrome Forecast
Issued by NWS St Louis, MO

Home | Current Version | Previous Version | Text Only | Print | Product List | Glossary On
Versions: 1 2 3 4 5 6 7 8 9 10 11 12 13 14 15
293
FTUS43 KLSX 052322
TAFCOU
TAF
KCOU 052322Z 0600/0624 15003KT P6SM SCT100
     FM060900 19005KT P6SM BKN250
     FM061500 25006KT P6SM SCT200=

USA.gov is the U.S. government's official web portal to all federal, state and local government web resources and services.